Location: Unspecified
(0.0000°N, 0.0000°E)
Time: 11:38:49
(UTC+00:00)

Vanguard 2 Rocket - Pass Details

Date: 15 December 2017
Orbit: 556 x 3326 km, 32.9° (Epoch: 18 January)

Event Time Altitude Azimuth Distance (km) Brightness Sun altitude
Rises 23:07:27 0° 319° (NW) 6,687 - -63.9°
Reaches altitude 10° 23:12:53 10° 330° (NNW) 5,961 - -64.5°
Maximum altitude 23:28:45 29° 24° (NNE) 4,829 - -65.8°
Drops below altitude 10° 23:43:58 10° 77° (ENE) 5,789 - -66.5°
Exits shadow 23:47:28 - 85° (E) 6,258 11.1 -66.6°
Sets 23:48:59 0° 88° (E) 6,484 11.2 -66.6°
